Weather History for Nampa, ID

Change the Weather History Date:

Saturday, February 9, 2013

  Actual Average (KBOI) Record (KBOI)
Temperature  
Mean Temperature 36 °F 35 °F  
Max Temperature 41 °F 43 °F 59 °F (1951)
Min Temperature 30 °F 27 °F -13 °F (1933)
Degree Days  
Heating Degree Days 30 30  
Month to date heating degree days 277  
Since 1 July heating degree days 3638  
Cooling Degree Days 0 0  
Month to date cooling degree days 0  
Year to date cooling degree days 0  
Moisture  
Dew Point 26 °F    
Average Humidity 70    
Maximum Humidity 93    
Minimum Humidity 45    
Precipitation  
Precipitation 0.00 in 0.04 in 0.64 in (1960)
Month to date precipitation 0.32  
Year to date precipitation 1.56  
Snow  
Snow 0.00 in 0.10 in 4.40 in (1966)
Month to date snowfall 1.1  
Since 1 July snowfall 15.9  
Snow Depth -    
Sea Level Pressure  
Sea Level Pressure 29.93 in    
Wind  
Wind Speed 16 mph (NW)    
Max Wind Speed 26 mph    
Max Gust Speed 36 mph    
Visibility 10 miles    
Events      
T = Trace of Precipitation, MM = Missing Value Source: NWS Daily Summary

Daily Weather History Graph

Daily Weather History Graph

Search for Another Location

Airport:

Trip Planner

Search our weather history database for the weather conditions in past years. The results will help you decide how hot, cold, wet, or windy it might be!

Date:

Astronomy

Feb. 09, 2013 Rise Set
Actual Time 7:52 AM MST 6:08 PM MST
Civil Twilight 7:22 AM MST 6:38 PM MST
Nautical Twilight 6:48 AM MST 7:12 PM MST
Astronomical Twilight 6:15 AM MST 7:45 PM MST
Moon 7:06 AM MST (2/9) 5:57 PM MST (2/9)
Length of Visible Light 11h 16m
Length of Day
10h 16m
Waning Crescent, 0% of the Moon is Illuminated
Feb 9
Waning Crescent
Feb 10
New
Feb 17
First Quarter
Feb 25
Full
Mar 4
Last Quarter

Hourly Weather History & Observations

Time (MST) Temp. Windchill Dew Point Humidity Pressure Visibility Wind Dir Wind Speed Gust Speed Precip Events Conditions
12:15 AM 32.0 °F 22.5 °F 28.4 °F 87% 29.89 in 10.0 mi WNW 12.7 mph - N/A   Clear
12:35 AM 32.0 °F 22.1 °F 26.6 °F 80% 29.89 in 10.0 mi NW 13.8 mph 24.2 mph N/A   Clear
12:55 AM 32.0 °F 21.6 °F 26.6 °F 80% 29.89 in 10.0 mi NW 15.0 mph 21.9 mph N/A   Clear
1:15 AM 32.0 °F 21.2 °F 26.6 °F 80% 29.89 in 10.0 mi NW 16.1 mph 21.9 mph N/A   Clear
1:35 AM 32.0 °F 20.5 °F 26.6 °F 80% 29.89 in 10.0 mi NW 18.4 mph 23.0 mph N/A   Clear
1:55 AM 32.0 °F 20.8 °F 26.6 °F 80% 29.88 in 10.0 mi NW 17.3 mph 24.2 mph N/A   Clear
2:15 AM 32.0 °F 20.5 °F 26.6 °F 80% 29.89 in 10.0 mi NW 18.4 mph 26.5 mph N/A   Clear
2:35 AM 32.0 °F 20.1 °F 26.6 °F 80% 29.88 in 10.0 mi NW 19.6 mph 26.5 mph N/A   Clear
2:55 AM 32.0 °F 20.5 °F 28.4 °F 87% 29.89 in 10.0 mi NW 18.4 mph 26.5 mph N/A   Clear
3:15 AM 32.0 °F 20.1 °F 28.4 °F 87% 29.88 in 10.0 mi NW 19.6 mph 27.6 mph N/A   Clear
3:35 AM 32.0 °F 20.5 °F 28.4 °F 87% 29.88 in 10.0 mi WNW 18.4 mph 25.3 mph N/A   Clear
3:55 AM 32.0 °F 21.6 °F 26.6 °F 80% 29.88 in 10.0 mi NW 15.0 mph 25.3 mph N/A   Clear
4:15 AM 32.0 °F 21.6 °F 26.6 °F 80% 29.88 in 10.0 mi NW 15.0 mph 24.2 mph N/A   Clear
4:35 AM 32.0 °F 21.2 °F 26.6 °F 80% 29.88 in 10.0 mi NW 16.1 mph 25.3 mph N/A   Clear
4:55 AM 32.0 °F 20.1 °F 26.6 °F 80% 29.89 in 10.0 mi WNW 19.6 mph 27.6 mph N/A   Clear
5:15 AM 30.2 °F 18.9 °F 28.4 °F 93% 29.89 in 10.0 mi WNW 16.1 mph - N/A   Clear
5:35 AM 30.2 °F 19.3 °F 28.4 °F 93% 29.89 in 10.0 mi WNW 15.0 mph 23.0 mph N/A   Clear
5:55 AM 32.0 °F 21.6 °F 26.6 °F 80% 29.89 in 10.0 mi NW 15.0 mph 24.2 mph N/A   Clear
6:15 AM 32.0 °F 20.5 °F 26.6 °F 80% 29.89 in 10.0 mi NW 18.4 mph 26.5 mph N/A   Clear
6:35 AM 32.0 °F 22.1 °F 26.6 °F 80% 29.89 in 10.0 mi NW 13.8 mph 21.9 mph N/A   Clear
6:55 AM 32.0 °F 21.6 °F 26.6 °F 80% 29.89 in 10.0 mi NW 15.0 mph - N/A   Clear
7:15 AM 30.2 °F 19.3 °F 26.6 °F 86% 29.90 in 10.0 mi WNW 15.0 mph 20.7 mph N/A   Clear
7:35 AM 30.2 °F 19.3 °F 26.6 °F 86% 29.91 in 10.0 mi WNW 15.0 mph - N/A   Clear
7:55 AM 30.2 °F 20.8 °F 26.6 °F 86% 29.92 in 10.0 mi WNW 11.5 mph - N/A   Clear
8:15 AM 32.0 °F 21.6 °F 26.6 °F 80% 29.92 in 10.0 mi WNW 15.0 mph 20.7 mph N/A   Clear
8:35 AM 32.0 °F 21.2 °F 26.6 °F 80% 29.92 in 10.0 mi WNW 16.1 mph - N/A   Clear
8:55 AM 32.0 °F 22.1 °F 26.6 °F 80% 29.93 in 10.0 mi NW 13.8 mph 18.4 mph N/A   Clear
9:15 AM 32.0 °F 20.5 °F 26.6 °F 80% 29.93 in 10.0 mi NW 18.4 mph 25.3 mph N/A   Clear
9:35 AM 33.8 °F 23.5 °F 26.6 °F 75% 29.94 in 10.0 mi NW 16.1 mph 23.0 mph N/A   Clear
9:55 AM 35.6 °F 25.2 °F 24.8 °F 65% 29.94 in 10.0 mi NW 18.4 mph 24.2 mph N/A   Clear
10:15 AM 35.6 °F 26.6 °F 24.8 °F 65% 29.94 in 10.0 mi NW 13.8 mph 24.2 mph N/A   Clear
10:35 AM 37.4 °F 27.8 °F 23.0 °F 56% 29.95 in 10.0 mi NW 17.3 mph 25.3 mph N/A   Clear
10:55 AM 37.4 °F 27.5 °F 23.0 °F 56% 29.95 in 10.0 mi NW 18.4 mph 26.5 mph N/A   Clear
11:15 AM 39.2 °F 29.3 °F 21.2 °F 49% 29.94 in 10.0 mi NW 20.7 mph 28.8 mph N/A   Clear
11:35 AM 39.2 °F 28.0 °F 19.4 °F 45% 29.94 in 10.0 mi NNW 26.5 mph 31.1 mph N/A   Clear
11:55 AM 39.2 °F 29.3 °F 19.4 °F 45% 29.95 in 10.0 mi NNW 20.7 mph 35.7 mph N/A   Clear
12:15 PM 39.2 °F 29.8 °F 21.2 °F 49% 29.94 in 10.0 mi NW 18.4 mph 28.8 mph N/A   Clear
12:35 PM 37.4 °F 26.9 °F 23.0 °F 56% 29.94 in 10.0 mi NW 20.7 mph 27.6 mph N/A   Clear
12:55 PM 37.4 °F 27.8 °F 23.0 °F 56% 29.93 in 10.0 mi NW 17.3 mph 28.8 mph N/A   Clear
1:15 PM 39.2 °F 29.3 °F 23.0 °F 52% 29.93 in 10.0 mi NW 20.7 mph 28.8 mph N/A   Clear
1:35 PM 39.2 °F 29.3 °F 23.0 °F 52% 29.92 in 10.0 mi NW 20.7 mph 29.9 mph N/A   Clear
1:55 PM 41.0 °F 31.4 °F 23.0 °F 49% 29.92 in 10.0 mi NW 21.9 mph 32.2 mph N/A   Clear
2:15 PM 41.0 °F 32.8 °F 24.8 °F 53% 29.92 in 10.0 mi NW 16.1 mph 25.3 mph N/A   Clear
2:35 PM 41.0 °F 31.1 °F 24.8 °F 53% 29.92 in 10.0 mi NW 23.0 mph 31.1 mph N/A   Clear
2:55 PM 41.0 °F 31.9 °F 24.8 °F 53% 29.92 in 10.0 mi NW 19.6 mph 25.3 mph N/A   Clear
3:15 PM 41.0 °F 31.1 °F 24.8 °F 53% 29.91 in 10.0 mi NW 23.0 mph 31.1 mph N/A   Clear
3:35 PM 41.0 °F 31.6 °F 24.8 °F 53% 29.92 in 10.0 mi NW 20.7 mph 27.6 mph N/A   Clear
3:55 PM 41.0 °F 32.2 °F 26.6 °F 57% 29.92 in 10.0 mi NW 18.4 mph 27.6 mph N/A   Clear
4:15 PM 41.0 °F 31.9 °F 26.6 °F 57% 29.92 in 10.0 mi NW 19.6 mph 25.3 mph N/A   Clear
4:35 PM 39.2 °F 30.5 °F 28.4 °F 65% 29.93 in 10.0 mi NW 16.1 mph 19.6 mph N/A   Clear
4:55 PM 39.2 °F 31.2 °F 26.6 °F 61% 29.93 in 10.0 mi NW 13.8 mph 18.4 mph N/A   Clear
5:15 PM 39.2 °F 31.6 °F 28.4 °F 65% 29.93 in 10.0 mi WNW 12.7 mph 19.6 mph N/A   Clear
5:35 PM 39.2 °F 30.5 °F 26.6 °F 61% 29.94 in 10.0 mi NW 16.1 mph 21.9 mph N/A   Clear
5:55 PM 37.4 °F 27.8 °F 26.6 °F 65% 29.94 in 10.0 mi NNW 17.3 mph 23.0 mph N/A   Clear
6:15 PM 37.4 °F 27.8 °F 24.8 °F 60% 29.94 in 10.0 mi NNW 17.3 mph 24.2 mph N/A   Clear
6:35 PM 37.4 °F 28.9 °F 26.6 °F 65% 29.95 in 10.0 mi NNW 13.8 mph 21.9 mph N/A   Mostly Cloudy
6:55 PM 37.4 °F 28.5 °F 26.6 °F 65% 29.96 in 10.0 mi NW 15.0 mph 20.7 mph N/A   Overcast
7:15 PM 37.4 °F 29.8 °F 26.6 °F 65% 29.97 in 10.0 mi NW 11.5 mph 19.6 mph N/A   Overcast
7:35 PM 37.4 °F 31.4 °F 26.6 °F 65% 29.98 in 10.0 mi NW 8.1 mph - N/A   Overcast
8:15 PM 35.6 °F - 28.4 °F 75% 29.98 in 10.0 mi Calm Calm - N/A   Mostly Cloudy
8:35 PM 35.6 °F 29.2 °F 28.4 °F 75% 29.98 in 10.0 mi NW 8.1 mph - N/A   Mostly Cloudy
8:55 PM 35.6 °F 29.2 °F 28.4 °F 75% 29.98 in 10.0 mi NNW 8.1 mph - N/A   Mostly Cloudy
9:15 PM 33.8 °F 26.4 °F 28.4 °F 81% 29.99 in 10.0 mi NNW 9.2 mph - N/A   Clear
9:35 PM 35.6 °F 28.6 °F 28.4 °F 75% 29.99 in 10.0 mi NNW 9.2 mph - N/A   Clear
9:55 PM 35.6 °F 28.0 °F 28.4 °F 75% 29.99 in 10.0 mi NNW 10.4 mph - N/A   Clear
10:15 PM 35.6 °F 27.5 °F 28.4 °F 75% 29.99 in 10.0 mi NNW 11.5 mph - N/A   Scattered Clouds
10:35 PM 35.6 °F 28.0 °F 28.4 °F 75% 29.99 in 10.0 mi NNW 10.4 mph - N/A   Mostly Cloudy
10:55 PM 35.6 °F 28.0 °F 28.4 °F 75% 30.00 in 10.0 mi NW 10.4 mph 16.1 mph N/A   Overcast
11:15 PM 35.6 °F 27.1 °F 28.4 °F 75% 30.00 in 10.0 mi NW 12.7 mph - N/A   Mostly Cloudy
11:35 PM 35.6 °F 26.6 °F 28.4 °F 75% 29.99 in 10.0 mi NW 13.8 mph 19.6 mph N/A   Partly Cloudy
11:55 PM 35.6 °F 27.5 °F 28.4 °F 75% 30.00 in 10.0 mi NW 11.5 mph - N/A   Partly Cloudy